�������l�o���
Date,Time,MP-1(��Sv/h),MP-2(��Sv/h),MP-3(��Sv/h),MP-4(��Sv/h),MP-5(��Sv/h),MP-6(��Sv/h),MP-7(��Sv/h),MP-8(��Sv/h),����,����(m/s),���J
2019/11/07,00:00,0.726,1.043,0.675,1.280,0.902,0.416,0.722,0.683,���k��,2.3,��
2019/11/07,00:10,0.728,1.042,0.677,1.280,0.905,0.416,0.721,0.682,���k��,1.9,��
2019/11/07,00:20,0.726,1.044,0.677,1.279,0.903,0.416,0.721,0.683,�k��,1.8,��
2019/11/07,00:30,0.729,1.042,0.675,1.280,0.903,0.415,0.721,0.683,���k��,1.6,��
2019/11/07,00:40,0.729,1.047,0.676,1.279,0.903,0.415,0.721,0.681,���k��,1.2,��
2019/11/07,00:50,0.727,1.043,0.678,1.280,0.904,0.417,0.721,0.685,�k��,1.8,��
2019/11/07,01:00,0.729,1.041,0.676,1.276,0.903,0.415,0.722,0.683,�k��,1.4,��
2019/11/07,01:10,0.728,1.042,0.677,1.279,0.904,0.416,0.721,0.682,�k��,1.3,��
2019/11/07,01:20,0.728,1.044,0.676,1.279,0.903,0.417,0.721,0.683,�k�k��,1.3,��
2019/11/07,01:30,0.729,1.043,0.676,1.279,0.903,0.416,0.720,0.683,�k�k��,1.1,��
2019/11/07,01:40,0.728,1.042,0.676,1.280,0.903,0.415,0.723,0.683,-,CALM,��
2019/11/07,01:50,0.730,1.043,0.677,1.278,0.906,0.416,0.720,0.683,�k��,0.8,��
2019/11/07,02:00,0.726,1.044,0.678,1.279,0.904,0.416,0.720,0.682,���k��,1.2,��
2019/11/07,02:10,0.728,1.044,0.677,1.280,0.902,0.416,0.721,0.684,��,1.3,��
2019/11/07,02:20,0.727,1.045,0.676,1.280,0.902,0.416,0.722,0.684,�쐼,1.0,��
2019/11/07,02:30,0.729,1.044,0.677,1.279,0.906,0.416,0.721,0.683,��쐼,0.9,��
2019/11/07,02:40,0.728,1.044,0.676,1.276,0.906,0.416,0.721,0.684,��쐼,1.0,��
2019/11/07,02:50,0.727,1.041,0.676,1.277,0.903,0.415,0.722,0.682,�쐼,1.7,��
2019/11/07,03:00,0.728,1.042,0.676,1.279,0.900,0.415,0.719,0.683,�쐼,2.2,��
2019/11/07,03:10,0.729,1.045,0.676,1.276,0.907,0.415,0.720,0.683,�쐼,2.2,��
2019/11/07,03:20,0.729,1.044,0.676,1.278,0.902,0.415,0.723,0.683,��쐼,2.0,��
2019/11/07,03:30,0.728,1.045,0.677,1.280,0.904,0.416,0.721,0.683,��,2.3,��
2019/11/07,03:40,0.728,1.042,0.676,1.278,0.905,0.416,0.721,0.682,��,1.6,��
2019/11/07,03:50,0.728,1.043,0.676,1.277,0.904,0.417,0.721,0.683,��쓌,2.0,��
2019/11/07,04:00,0.730,1.042,0.675,1.280,0.903,0.418,0.722,0.683,��쓌,2.6,��
2019/11/07,04:10,0.729,1.043,0.678,1.279,0.904,0.415,0.722,0.683,��쓌,2.8,��
2019/11/07,04:20,0.727,1.042,0.678,1.278,0.901,0.416,0.721,0.682,�쓌,3.0,��
2019/11/07,04:30,0.729,1.043,0.675,1.277,0.902,0.417,0.722,0.683,�쓌,2.9,��
2019/11/07,04:40,0.727,1.042,0.679,1.279,0.906,0.416,0.721,0.684,��쓌,2.7,��
2019/11/07,04:50,0.729,1.042,0.675,1.278,0.904,0.416,0.722,0.683,��,3.0,��
2019/11/07,05:00,0.727,1.042,0.676,1.279,0.904,0.417,0.720,0.682,��,4.6,��
2019/11/07,05:10,0.727,1.041,0.675,1.279,0.904,0.417,0.721,0.685,��,4.2,��
2019/11/07,05:20,0.729,1.041,0.677,1.280,0.905,0.416,0.720,0.683,��,4.1,��
2019/11/07,05:30,0.728,1.042,0.676,1.278,0.903,0.417,0.721,0.683,��쐼,4.1,��
2019/11/07,05:40,0.729,1.041,0.676,1.279,0.902,0.415,0.720,0.684,��쐼,4.4,��
2019/11/07,05:50,0.728,1.044,0.676,1.277,0.902,0.417,0.722,0.682,��,4.9,��
2019/11/07,06:00,0.728,1.042,0.677,1.279,0.902,0.415,0.720,0.684,��,4.9,��
2019/11/07,06:10,0.727,1.042,0.677,1.279,0.904,0.415,0.720,0.682,��,5.2,��
2019/11/07,06:20,0.728,1.041,0.675,1.279,0.902,0.415,0.722,0.683,��,5.6,��
2019/11/07,06:30,0.730,1.042,0.676,1.281,0.905,0.415,0.720,0.683,��,4.4,��
2019/11/07,06:40,0.729,1.045,0.676,1.280,0.903,0.416,0.721,0.683,��,2.6,��
2019/11/07,06:50,0.729,1.044,0.678,1.275,0.903,0.415,0.722,0.680,��,5.3,��
2019/11/07,07:00,0.727,1.043,0.677,1.279,0.904,0.416,0.722,0.684,��,5.8,��
2019/11/07,07:10,0.729,1.041,0.677,1.279,0.904,0.416,0.722,0.683,��,5.2,��
2019/11/07,07:20,0.728,1.041,0.676,1.279,0.900,0.415,0.721,0.685,��,5.8,��
2019/11/07,07:30,0.731,1.041,0.677,1.282,0.902,0.416,0.722,0.684,��,5.6,��
2019/11/07,07:40,0.729,1.042,0.675,1.277,0.903,0.417,0.721,0.684,��,5.6,��
2019/11/07,07:50,0.729,1.041,0.677,1.280,0.904,0.416,0.722,0.686,��,5.5,��
2019/11/07,08:00,0.729,1.042,0.676,1.279,0.902,0.416,0.722,0.683,��,5.8,��
2019/11/07,08:10,0.730,1.043,0.679,1.280,0.902,0.417,0.723,0.685,��,5.8,��
2019/11/07,08:20,0.732,1.044,0.676,1.278,0.905,0.417,0.724,0.684,��,4.9,��
2019/11/07,08:30,0.732,1.044,0.679,1.279,0.905,0.417,0.722,0.685,��,4.1,��
2019/11/07,08:40,0.733,1.040,0.678,1.280,0.904,0.417,0.722,0.685,��쓌,3.8,��
2019/11/07,08:50,0.732,1.040,0.677,1.281,0.905,0.418,0.722,0.685,��,4.4,��
2019/11/07,09:00,0.732,1.039,0.678,1.278,0.904,0.416,0.722,0.684,��쓌,3.1,��
2019/11/07,09:10,0.733,1.039,0.676,1.279,0.905,0.418,0.723,0.684,��쓌,4.9,��
2019/11/07,09:20,0.729,1.036,0.674,1.279,0.905,0.418,0.721,0.684,��쓌,6.9,��
2019/11/07,09:30,0.730,1.039,0.674,1.279,0.903,0.419,0.721,0.683,��,5.5,��
2019/11/07,09:40,0.729,1.038,0.674,1.280,0.904,0.418,0.724,0.686,��,5.3,��
2019/11/07,09:50,0.728,1.035,0.673,1.277,0.902,0.416,0.722,0.684,��,6.4,��
2019/11/07,10:00,0.728,1.039,0.673,1.280,0.902,0.417,0.723,0.686,��,6.9,��
2019/11/07,10:10,0.729,1.042,0.674,1.280,0.904,0.416,0.723,0.684,��쓌,7.5,��
2019/11/07,10:20,0.730,1.042,-,1.278,0.903,0.416,0.723,0.685,��쓌,8.9,��
2019/11/07,10:30,0.730,1.042,-,1.280,0.904,0.416,0.724,0.686,��쓌,8.9,��
2019/11/07,10:40,0.732,1.041,-,1.281,0.904,0.418,0.723,0.683,��쓌,9.1,��
2019/11/07,10:50,0.730,1.040,-,1.281,0.905,0.418,0.723,0.685,��,9.4,��
2019/11/07,11:00,0.731,1.044,-,1.280,0.905,0.418,0.723,0.687,��쓌,8.8,��
2019/11/07,11:10,0.730,1.046,-,1.282,0.905,0.417,0.724,0.686,��쓌,9.6,��
2019/11/07,11:20,0.731,1.044,-,1.281,0.904,0.419,0.723,0.684,��쓌,8.8,��
2019/11/07,11:30,0.731,1.045,-,1.282,0.906,0.418,0.722,0.685,��쓌,8.6,��
2019/11/07,11:40,0.730,1.046,-,1.283,0.906,0.419,0.723,0.685,��쓌,9.7,��
2019/11/07,11:50,0.732,1.044,-,1.283,0.907,0.419,0.725,0.684,��쓌,9.9,��
2019/11/07,12:00,0.730,1.043,-,1.283,0.906,0.418,0.723,0.684,��쓌,8.5,��
2019/11/07,12:10,0.733,1.049,-,1.281,0.908,0.418,0.723,0.684,��쓌,9.6,��
2019/11/07,12:20,0.732,1.048,-,1.280,0.907,0.419,0.724,0.684,��쓌,7.7,��
2019/11/07,12:30,0.731,1.048,-,1.283,0.906,0.419,0.725,0.683,��쓌,8.6,��
2019/11/07,12:40,0.732,1.049,-,1.282,0.907,0.418,0.725,0.682,��쓌,10.1,��
2019/11/07,12:50,0.732,1.047,-,1.282,0.908,0.420,0.723,0.683,��쓌,8.5,��
2019/11/07,13:00,0.731,1.048,-,1.281,0.907,0.421,0.723,0.683,��쓌,8.2,��
2019/11/07,13:10,0.727,1.048,-,1.283,0.908,0.420,0.723,0.684,��쓌,6.1,��
2019/11/07,13:20,0.726,1.046,-,1.283,0.906,0.420,0.724,0.684,��쓌,5.2,��
2019/11/07,13:30,0.727,1.045,-,1.281,0.907,0.420,0.724,0.683,��쓌,3.8,��
2019/11/07,13:40,0.728,1.046,-,1.283,0.910,0.419,0.723,0.683,��쓌,1.9,��
2019/11/07,13:50,0.727,1.049,-,1.282,0.905,0.420,0.724,0.682,��쓌,1.8,��
2019/11/07,14:00,0.723,1.044,-,1.284,0.908,0.420,0.725,0.682,�쐼,1.0,��
2019/11/07,14:10,0.725,1.042,-,1.285,0.906,0.421,0.724,0.684,���쐼,3.2,��
2019/11/07,14:20,0.721,1.045,-,1.284,0.906,0.421,0.725,0.684,�쐼,4.6,��
2019/11/07,14:30,0.725,1.043,-,1.285,0.906,0.418,0.722,0.683,�쐼,5.5,��
2019/11/07,14:40,0.724,1.044,-,1.284,0.907,0.421,0.724,0.683,�쐼,4.7,��
2019/11/07,14:50,0.723,1.044,-,1.285,0.908,0.419,0.723,0.683,�쐼,4.7,��
2019/11/07,15:00,0.727,1.042,0.677,1.287,0.907,0.420,0.726,0.683,��쐼,5.2,��
2019/11/07,15:10,0.732,1.043,0.679,1.284,0.907,0.420,0.723,0.682,�쐼,4.2,��
2019/11/07,15:20,0.733,1.044,0.678,1.285,0.906,0.420,0.724,0.683,�쐼,4.2,��
2019/11/07,15:30,0.731,1.046,0.680,1.285,0.906,0.420,0.724,0.683,�쐼,4.3,��
2019/11/07,15:40,0.732,1.047,0.679,1.284,0.910,0.420,0.724,0.685,���쐼,3.2,��
2019/11/07,15:50,0.732,1.050,0.683,1.282,0.909,0.421,0.724,0.684,���쐼,3.3,��
2019/11/07,16:00,0.732,1.051,0.682,1.285,0.907,0.420,0.723,0.684,���쐼,2.2,��
2019/11/07,16:10,0.730,1.051,0.680,1.285,0.908,0.422,0.721,0.685,��,2.6,��
2019/11/07,16:20,0.733,1.049,0.682,1.284,0.910,0.420,0.726,0.686,��,2.9,��
2019/11/07,16:30,0.732,1.051,0.680,1.283,0.909,0.421,0.723,0.688,���쐼,3.0,��
2019/11/07,16:40,0.732,1.053,0.679,1.284,0.912,0.421,0.724,0.685,���쐼,4.0,��
2019/11/07,16:50,0.734,1.051,0.681,1.285,0.911,0.422,0.725,0.687,�쐼,3.8,��
2019/11/07,17:00,0.733,1.051,0.682,1.283,0.910,0.420,0.723,0.686,���쐼,3.4,��
2019/11/07,17:10,0.734,1.053,0.681,1.284,0.911,0.423,0.725,0.687,�쐼,3.8,��
2019/11/07,17:20,0.734,1.052,0.680,1.283,0.910,0.422,0.726,0.685,���쐼,4.2,��
2019/11/07,17:30,0.735,1.049,0.682,1.285,0.910,0.420,0.724,0.685,���쐼,5.5,��
2019/11/07,17:40,0.734,1.050,0.682,1.283,0.912,0.421,0.726,0.688,���쐼,5.3,��
2019/11/07,17:50,0.732,1.048,0.682,1.282,0.909,0.421,0.726,0.685,���쐼,6.0,��
2019/11/07,18:00,0.733,1.054,0.683,1.287,0.911,0.421,0.725,0.686,���쐼,5.7,��
2019/11/07,18:10,0.734,1.052,0.681,1.285,0.911,0.422,0.725,0.687,���쐼,6.4,��
2019/11/07,18:20,0.735,1.052,0.681,1.284,0.910,0.423,0.725,0.685,���쐼,6.4,��
2019/11/07,18:30,0.732,1.051,0.683,1.286,0.910,0.419,0.725,0.686,���쐼,5.8,��
2019/11/07,18:40,0.734,1.051,0.681,1.287,0.911,0.420,0.725,0.687,���쐼,5.8,��
2019/11/07,18:50,0.735,1.050,0.682,1.288,0.909,0.421,0.725,0.686,���쐼,6.3,��
2019/11/07,19:00,0.733,1.048,0.683,1.285,0.909,0.420,0.725,0.686,��,6.1,��
2019/11/07,19:10,0.731,1.050,0.682,1.288,0.911,0.420,0.726,0.685,��,6.0,��
2019/11/07,19:20,0.733,1.050,0.682,1.288,0.911,0.421,0.726,0.687,��,6.4,��
2019/11/07,19:30,0.735,1.050,0.683,1.288,0.908,0.421,0.725,0.686,��,6.6,��
2019/11/07,19:40,0.734,1.051,0.681,1.287,0.912,0.421,0.724,0.687,��,7.4,��
2019/11/07,19:50,0.732,1.051,0.683,1.287,0.909,0.421,0.725,0.688,��,6.7,��
2019/11/07,20:00,0.735,1.051,0.684,1.288,0.909,0.420,0.724,0.685,��,8.0,��
2019/11/07,20:10,0.734,1.051,0.683,1.289,0.911,0.421,0.725,0.685,��,9.1,��
2019/11/07,20:20,0.734,1.051,0.681,1.287,0.911,0.420,0.724,0.685,��,10.1,��
2019/11/07,20:30,0.735,1.051,0.682,1.287,0.911,0.421,0.723,0.686,��,9.3,��
2019/11/07,20:40,0.734,1.052,0.683,1.287,0.910,0.420,0.725,0.686,��,9.4,��
2019/11/07,20:50,0.734,1.052,0.682,1.287,0.912,0.419,0.724,0.684,���k��,6.9,��
2019/11/07,21:00,0.733,1.052,0.682,1.289,0.909,0.421,0.725,0.685,�k��,4.9,��
2019/11/07,21:10,0.734,1.051,0.680,1.286,0.908,0.420,0.723,0.685,�k�k��,5.6,��
2019/11/07,21:20,0.732,1.051,0.680,1.287,0.906,0.420,0.723,0.687,�k�k��,5.0,��
2019/11/07,21:30,0.732,1.051,0.680,1.286,0.909,0.419,0.722,0.688,�k�k��,5.5,��
2019/11/07,21:40,0.735,1.053,0.684,1.288,0.909,0.421,0.724,0.684,�k�k��,4.4,��
2019/11/07,21:50,0.733,1.050,0.682,1.288,0.910,0.417,0.723,0.686,�k,4.7,��
2019/11/07,22:00,0.730,1.052,0.683,1.286,0.909,0.420,0.725,0.687,�k�k��,6.3,��
2019/11/07,22:10,0.732,1.050,0.682,1.288,0.909,0.420,0.724,0.687,�k�k��,6.6,��
2019/11/07,22:20,0.733,1.051,0.683,1.285,0.910,0.420,0.724,0.687,�k�k��,7.2,��
2019/11/07,22:30,0.733,1.049,0.681,1.288,0.910,0.420,0.724,0.687,�k��,7.2,��
2019/11/07,22:40,0.732,1.052,0.681,1.285,0.911,0.419,0.725,0.684,�k�k��,6.0,��
2019/11/07,22:50,0.731,1.053,0.680,1.287,0.910,0.417,0.724,0.684,�k�k��,6.9,��
2019/11/07,23:00,0.731,1.051,0.681,1.287,0.911,0.420,0.723,0.687,�k�k��,7.1,��
2019/11/07,23:10,0.730,1.051,0.681,1.286,0.911,0.418,0.722,0.685,�k��,7.5,��
2019/11/07,23:20,0.730,1.050,0.679,1.285,0.910,0.418,0.722,0.685,�k��,8.8,��
2019/11/07,23:30,0.731,1.050,0.680,1.287,0.910,0.417,0.722,0.685,�k��,7.7,��
2019/11/07,23:40,0.729,1.050,0.682,1.285,0.911,0.419,0.723,0.688,�k��,6.0,��
2019/11/07,23:50,0.732,1.052,0.680,1.287,0.910,0.417,0.722,0.683,�k��,8.0,��
